Columbia Owens, SC

2:27 PM EDT on April 25, 2018 (GMT -0400)
Columbia Owens Downtown

Weather History for KCUB - October, 2013

Change the Weather History Date:

Wednesday, October 23, 2013

  Actual Average Record
Temperature  
Mean Temperature 61 °F 63 °F  
Max Temperature 73 °F 74 °F 90 °F (2007)
Min Temperature 49 °F 52 °F 37 °F (1998)
Degree Days  
Heating Degree Days 4 4  
Month to date heating degree days 12 47  
Since 1 July heating degree days 12 50  
Cooling Degree Days 0 2  
Month to date cooling degree days 126 85  
Year to date cooling degree days 2199 2232  
Growing Degree Days 14 (Base 50)    
Moisture  
Dew Point 46 °F    
Average Humidity 60    
Maximum Humidity 97    
Minimum Humidity 20    
Precipitation  
Precipitation 0.00 in 0.10 in 0.65 in (2017)
Month to date precipitation 0.15 2.60  
Year to date precipitation 44.99 38.49  
Sea Level Pressure  
Sea Level Pressure 29.85 in    
Wind  
Wind Speed 8 mph (West)    
Max Wind Speed 22 mph    
Max Gust Speed 30 mph    
Visibility 9 miles    
Events      
T = Trace of Precipitation, MM = Missing Value Source: NWS Daily Summary

Daily Weather History Graph

Daily Weather History Graph

Search for Another Location

Airport or City:

Astronomy

Oct. 23, 2013 Rise Set
Actual Time 7:35 AM EDT 6:40 PM EDT
Civil Twilight 7:10 AM EDT 7:05 PM EDT
Nautical Twilight 6:41 AM EDT 7:34 PM EDT
Astronomical Twilight 6:12 AM EDT 8:03 PM EDT
Moon 10:16 PM EDT (10/23) 11:44 AM EDT (10/23)
Length of Visible Light 11h 55m
Length of Day
11h 04m
Waning Gibbous, 79% of the Moon is Illuminated
Oct 23
Waning Gibbous
Oct 26
Last Quarter
Nov 3
New
Nov 10
First Quarter
Nov 17
Full

Hourly Weather History & Observations

Time (EDT) Temp. Dew Point Humidity Pressure Visibility Wind Dir Wind Speed Gust Speed Precip Events Conditions
12:00 AM 62.6 °F 60.8 °F 94% 29.86 in 9.0 mi South 3.5 mph - N/A   Mostly Cloudy
12:21 AM 62.6 °F 60.8 °F 94% 29.85 in 9.0 mi Calm Calm - N/A   Overcast
12:53 AM 63.0 °F 60.1 °F 90% 29.83 in 9.0 mi South 3.5 mph - N/A   Overcast
1:53 AM 63.0 °F 61.0 °F 93% 29.82 in 9.0 mi SW 6.9 mph - N/A   Overcast
2:53 AM 64.0 °F 61.0 °F 90% 29.81 in 10.0 mi Calm Calm - N/A   Overcast
3:04 AM 64.4 °F 60.8 °F 88% 29.81 in 9.0 mi SSW 3.5 mph - N/A   Overcast
3:53 AM 63.0 °F 60.1 °F 90% 29.79 in 7.0 mi Calm Calm - N/A   Mostly Cloudy
4:53 AM 62.1 °F 60.1 °F 93% 29.78 in 6.0 mi SSW 3.5 mph - N/A   Overcast
5:34 AM 62.6 °F 59.0 °F 88% 29.78 in 5.0 mi Calm Calm - N/A   Scattered Clouds
5:53 AM 61.0 °F 59.0 °F 93% 29.78 in 5.0 mi Calm Calm - N/A   Clear
6:53 AM 59.0 °F 57.9 °F 96% 29.78 in 5.0 mi WSW 4.6 mph - N/A   Clear
7:53 AM 59.0 °F 52.0 °F 78% 29.81 in 10.0 mi West 6.9 mph - N/A   Clear
8:53 AM 59.0 °F 50.0 °F 72% 29.82 in 10.0 mi West 9.2 mph - N/A   Clear
9:53 AM 63.0 °F 48.9 °F 60% 29.84 in 10.0 mi West 9.2 mph - N/A   Clear
10:53 AM 64.9 °F 46.0 °F 50% 29.83 in 10.0 mi West 9.2 mph - N/A   Clear
11:53 AM 68.0 °F 42.1 °F 39% 29.83 in 10.0 mi West 12.7 mph 20.7 mph N/A   Clear
12:53 PM 70.0 °F 41.0 °F 35% 29.82 in 10.0 mi West 18.4 mph 27.6 mph N/A   Clear
1:53 PM 71.1 °F 35.1 °F 27% 29.81 in 10.0 mi WNW 17.3 mph 26.5 mph N/A   Clear
2:53 PM 73.0 °F 30.9 °F 21% 29.80 in 10.0 mi WNW 15.0 mph 29.9 mph N/A   Clear
3:53 PM 73.0 °F 30.0 °F 20% 29.81 in 10.0 mi WNW 11.5 mph 27.6 mph N/A   Clear
4:53 PM 71.1 °F 28.9 °F 21% 29.83 in 10.0 mi West 17.3 mph 25.3 mph N/A   Clear
5:53 PM 69.1 °F 32.0 °F 25% 29.86 in 10.0 mi WNW 12.7 mph 23.0 mph N/A   Clear
6:53 PM 66.0 °F 34.0 °F 30% 29.89 in 10.0 mi Variable 5.8 mph 16.1 mph N/A   Clear
7:53 PM 64.0 °F 35.1 °F 34% 29.92 in 10.0 mi NW 8.1 mph - N/A   Clear
8:53 PM 60.1 °F 35.1 °F 39% 29.97 in 10.0 mi Variable 5.8 mph - N/A   Clear
9:53 PM 55.9 °F 30.9 °F 39% 30.01 in 10.0 mi Variable 4.6 mph - N/A   Clear
10:53 PM 54.0 °F 32.0 °F 43% 30.06 in 10.0 mi Calm Calm - N/A   Clear
11:53 PM 51.1 °F 32.0 °F 48% 30.08 in 10.0 mi North 3.5 mph - N/A   Clear